Погода в Аносе

Россия / Республика Алтай     51°29′59″N   85°56′43″E
темп.,
°C
ветер,
м/с
пор.,
м/с
влажн.,
%
обл.,
%
осадки,
мм/ч
давл.,
гПа
погр.,
м
17 мая, пн
пн1701:00+11ююв237523 0.0 101546
04:00+10ююв228191 0.1 101539
07:00+11ююв2575100 0.1 1015143
10:00+17юв1152100 0.0 1014492
13:00+18ссз0250100 0.1 1014817
16:00+20сз254948 0.1 10131694
19:00+16ссз1374100 2.6 1015786
22:00+12ссз119492 2.4 101711
18 мая, вт
вт1801:00+10ююз11965 3.8 101611
04:00+10ююв11959 0.0 101615
07:00+11ююв24917 0.0 1015123
10:00+17ю2462100 0.0 1012718
13:00+21з374499 0.1 10102074
16:00+21зсз494814 0.0 10091979
19:00+16ссз2669100 0.6 1007208
22:00+11ююв2496100 8.0 101095
19 мая, ср
ср1901:00+11ююв2496100 13.4 1009137
04:00+10ююв24948 0.3 100798
07:00+11ю2594100 1.5 1005180
10:00+16юз2775100 1.7 1004881
13:00+17зсз4870100 3.8 10031405
16:00+14сз2686100 2.6 1004846
19:00+9ссз3498100 4.1 1005353
22:00+7ссз3597100 1.3 1007485
20 мая, чт
чт2001:00+5ссз2397100 4.1 1007757
04:00+2ссз23100100 4.5 1009299
07:00+3зсз1199100 6.3 1009223
10:00+1ссз2499100 2.3 1011261
13:00+3ссз2484100 3.8 10121003
16:00+3ссз3573100 2.0 10131327
19:00+1зсз3893100 5.3 1016904
22:000сз2499100 3.8 1019250
21 мая, пт
пт2101:00−2сз1296100 6.5 1021137
04:00−4юв009781 0.5 102411
07:00−3ю11915 0.5 102687
10:00+2зсз117180 0.1 10261235
13:00+4ссз226480 0.1 10261628
16:00+5ссв226481 0.1 10251400
19:00+5св11685 0.1 1026797
22:00−2юв2197100 0.0 102813